Location: Newark
(45.5000°N, 11.4167°E)
Time: 00:29:54
(UTC+00:00)

A-11 Canister half - Pass Details

Date: 27 August 2019
Orbit: 1514 x 1686 km, 47.2° (Epoch: 23 October)

Event Time Altitude Azimuth Distance (km) Brightness Sun altitude
Rises 14:05:05 0° 195° (SSW) 4,641 12.0 39.4°
Reaches altitude 10° 14:08:42 10° 184° (S) 3,669 11.5 38.9°
Maximum altitude 14:15:57 27° 131° (SE) 2,625 10.3 37.7°
Drops below altitude 10° 14:23:20 10° 79° (E) 3,751 10.7 36.6°
Sets 14:27:02 0° 68° (ENE) 4,764 11.1 36.0°
